This is the latest recevied weather packets stored in our database for station/object KV9E. If no packets are shown the sender has not sent any weather packets the latest 10 day(s).
| Time | Temp. | Humidity | Pressure | Rain* | Wind** | Luminosity | Snow |
|---|---|---|---|---|---|---|---|
| 1777601225 | 10° C | 58% | 1014.6 hPa | 0 mm | - | 0 W/m² | - |
| 1777600923 | 10° C | 62% | 1014.6 hPa | 0 mm | - | 0 W/m² | - |
| 1777600618 | 10° C | 60% | 1014.3 hPa | 0 mm | - | 0 W/m² | - |
| 1777600315 | 10° C | 61% | 1014.3 hPa | 0 mm | - | 0 W/m² | - |
| 1777600011 | 10° C | 60% | 1014.3 hPa | 0 mm | - | 0 W/m² | - |
| 1777599707 | 10° C | 59% | 1014.3 hPa | 0 mm | - | 0 W/m² | - |
| 1777599403 | 10° C | 61% | 1014.3 hPa | 0 mm | - | 0 W/m² | - |
| 1777599100 | 10° C | 60% | 1014.3 hPa | 0 mm | - | 0 W/m² | - |
| 1777598799 | 10° C | 59% | 1014.4 hPa | 0 mm | - | 0 W/m² | - |
| 1777598498 | 10° C | 58% | 1014.3 hPa | 0 mm | - | 0 W/m² | - |
| 1777598193 | 10.56° C | 60% | 1014 hPa | 0 mm | - | 0 W/m² | - |
| 1777597892 | 10.56° C | 61% | 1014.2 hPa | 0 mm | - | 0 W/m² | - |
| 1777597586 | 10.56° C | 61% | 1014.2 hPa | 0 mm | - | 0 W/m² | - |
| 1777597282 | 10.56° C | 61% | 1013.8 hPa | 0 mm | - | 0 W/m² | - |
| 1777596977 | 10.56° C | 59% | 1014.1 hPa | 0 mm | - | 0 W/m² | - |
| 1777596675 | 10.56° C | 61% | 1014.2 hPa | 0 mm | - | 0 W/m² | - |
| 1777596371 | 10.56° C | 61% | 1014.1 hPa | 0 mm | - | 0 W/m² | - |
| 1777596069 | 10.56° C | 57% | 1014 hPa | 0 mm | - | 0 W/m² | - |
| 1777595764 | 10.56° C | 60% | 1014 hPa | 0 mm | - | 1 W/m² | - |
| 1777595459 | 11.11° C | 61% | 1014.1 hPa | 0 mm | - | 2 W/m² | - |
| 1777595155 | 11.11° C | 59% | 1014.1 hPa | 0 mm | - | 3 W/m² | - |
| 1777594852 | 11.11° C | 59% | 1014 hPa | 0 mm | - | 5 W/m² | - |
| 1777594549 | 11.67° C | 60% | 1013.6 hPa | 0 mm | - | 6 W/m² | - |
| 1777594245 | 11.67° C | 58% | 1013.6 hPa | 0 mm | - | 11 W/m² | - |
| 1777593940 | 11.67° C | 58% | 1013.5 hPa | 0 mm | - | 12 W/m² | - |
* Rain latest hour (hover to see other rain measurements)
** Current wind speed in m/s (hover to see current wind gust speed)